Location name: Nemba | Identifier : 281001 | Type : Hydrology Station

On the right bank upstream the Giticyinyoni bridge the station consists of staff gauge and a float in a stilling well. Both banks are stable and accessible.

  • Parameter : Stage
  • Unit : m
  • Start time : 1972-05-16T08:00:00.0000000+02:00
  • End time : 2014-05-31T00:00:00.0000000+02:00
  • Parameter : Stage
  • Unit : m
  • Start time : 2016-03-01T08:00:00.0000000+02:00
  • End time : 2017-03-31T17:00:00.0000000+02:00
  • Parameter : Stage
  • Unit : m
  • Start time : 2017-02-09T00:00:00.0000000+02:00
  • End time : 2022-10-03T09:00:00.0000000+02:00
Date Parameter Unit Value
1972-06-08T00:00:00.0000000+02:00 Discharge m^3/s 10.39999962
1972-06-08T00:00:00.0000000+02:00 Stage m 1.284999967
1972-11-08T00:00:00.0000000+02:00 Discharge m^3/s 11.80000019
1972-11-08T00:00:00.0000000+02:00 Stage m 1.440000057
1972-11-20T00:00:00.0000000+02:00 Discharge m^3/s 5.170000076
1972-11-20T00:00:00.0000000+02:00 Stage m 0.920000017
1972-12-08T00:00:00.0000000+02:00 Discharge m^3/s 2.880000114
1972-12-08T00:00:00.0000000+02:00 Stage m 0.720000029
1973-01-10T00:00:00.0000000+02:00 Discharge m^3/s 3.75999999
1973-01-10T00:00:00.0000000+02:00 Stage m 0.75999999
1973-02-20T00:00:00.0000000+02:00 Discharge m^3/s 7.340000153
1973-02-20T00:00:00.0000000+02:00 Stage m 1.24000001
1973-04-09T00:00:00.0000000+02:00 Discharge m^3/s 6.369999886
1973-04-09T00:00:00.0000000+02:00 Stage m 1.080000043
1975-02-05T00:00:00.0000000+02:00 Discharge m^3/s 6.260000229
1975-02-05T00:00:00.0000000+02:00 Stage m 1.059999943
1975-07-16T00:00:00.0000000+02:00 Discharge m^3/s 8.489999771
1975-07-16T00:00:00.0000000+02:00 Stage m 1.429999948
1975-07-23T00:00:00.0000000+02:00 Discharge m^3/s 4.570000172
1975-07-23T00:00:00.0000000+02:00 Stage m 0.995000005
1975-10-30T00:00:00.0000000+02:00 Discharge m^3/s 3.75
1975-10-30T00:00:00.0000000+02:00 Stage m 0.769999981
1975-11-20T00:00:00.0000000+02:00 Discharge m^3/s 3.799999952
1975-11-20T00:00:00.0000000+02:00 Stage m 0.779999971
1976-04-20T00:00:00.0000000+02:00 Discharge m^3/s 27.60000038
1976-04-20T00:00:00.0000000+02:00 Stage m 3.450000048
1976-04-26T00:00:00.0000000+02:00 Discharge m^3/s 24.54999924
1976-04-26T00:00:00.0000000+02:00 Stage m 3.125
1976-05-13T00:00:00.0000000+02:00 Discharge m^3/s 13.60000038
1976-05-13T00:00:00.0000000+02:00 Stage m 2.200000048
1976-07-30T00:00:00.0000000+02:00 Discharge m^3/s 23.5
1976-07-30T00:00:00.0000000+02:00 Stage m 3.180000067
1976-08-11T00:00:00.0000000+02:00 Discharge m^3/s 9.899999619
1976-08-11T00:00:00.0000000+02:00 Stage m 1.735000014
1977-04-08T00:00:00.0000000+02:00 Discharge m^3/s 7.320000172
1977-04-08T00:00:00.0000000+02:00 Stage m 0.479999989
1977-04-09T00:00:00.0000000+02:00 Discharge m^3/s 8.479999542
1977-04-09T00:00:00.0000000+02:00 Stage m 1.159999967
1977-11-19T00:00:00.0000000+02:00 Discharge m^3/s 18.37999916
1977-11-19T00:00:00.0000000+02:00 Stage m 1.940000057
1977-11-22T00:00:00.0000000+02:00 Discharge m^3/s 7.079999924
1977-11-22T00:00:00.0000000+02:00 Stage m 0.899999976
1979-01-25T00:00:00.0000000+02:00 Discharge m^3/s 4.570000172
1979-01-25T00:00:00.0000000+02:00 Stage m 0.629999995
2017-05-03T14:19:00.0000000+02:00 Discharge m^3/s 8.3
2017-05-03T14:19:00.0000000+02:00 Stage m 1.23
2017-08-21T13:20:00.0000000+02:00 Discharge m^3/s 2.6
2017-08-21T13:20:00.0000000+02:00 Stage m 1
2017-11-20T12:21:00.0000000+02:00 Discharge m^3/s 4.9
2017-11-20T12:21:00.0000000+02:00 Stage m 1.27
2018-05-04T11:22:00.0000000+02:00 Discharge m^3/s 28.1
2018-05-04T11:22:00.0000000+02:00 Stage m 2.6
2018-05-04T11:22:00.0000000+02:00 Discharge m^3/s 9.09
2018-08-27T09:26:00.0000000+02:00 Discharge m^3/s 16.7
2018-08-27T09:26:00.0000000+02:00 Stage m 2.07
2018-12-10T11:24:00.0000000+02:00 Discharge m^3/s 6.5
2018-12-10T11:24:00.0000000+02:00 Stage m 1.44
2019-06-03T08:13:00.0000000+02:00 Discharge m^3/s 7.671
2019-06-03T08:13:00.0000000+02:00 Stage m 1.44
2019-09-02T16:02:00.0000000+02:00 Discharge m^3/s 6.75
2019-09-02T16:02:00.0000000+02:00 Stage m 1.24
2020-10-20T09:31:00.0000000+02:00 Discharge m^3/s 16.088
2020-10-20T09:31:00.0000000+02:00 Stage m 1.78